Location: Poughquag
(41.6090°N, 73.6820°W)
Time: 18:23:16
(UTC-05:00)

A-11 Canister half - Pass Details

Date: 10 December 2023
Orbit: 1526 x 1682 km, 47.3° (Epoch: 23 February)

Event Time Altitude Azimuth Distance (km) Brightness Sun altitude
Rises 17:09:46 0° 229° (SW) 4,891 13.3 -8.4°
Reaches altitude 10° 17:12:54 10° 227° (SW) 3,917 12.4 -8.9°
Maximum altitude 17:22:55 71° 146° (SE) 1,757 9.3 -10.7°
Enters shadow 17:31:49 15° 66° (ENE) 3,577 10.2 -12.2°
